�������l�o���
Date,Time,MP-1(��Sv/h),MP-2(��Sv/h),MP-3(��Sv/h),MP-4(��Sv/h),MP-5(��Sv/h),MP-6(��Sv/h),MP-7(��Sv/h),MP-8(��Sv/h),����,����(m/s),���J
2018/02/08,00:00,0.870,1.453,0.908,1.672,1.166,0.480,0.858,0.830,�k,2.6,��
2018/02/08,00:10,0.869,1.452,0.908,1.673,1.166,0.482,0.858,0.831,�k��,4.0,��
2018/02/08,00:20,0.869,1.452,0.908,1.673,1.165,0.482,0.859,0.830,�k��,4.7,��
2018/02/08,00:30,0.870,1.454,0.909,1.673,1.165,0.482,0.859,0.829,�k��,2.6,��
2018/02/08,00:40,0.868,1.453,0.909,1.671,1.165,0.482,0.858,0.830,��,2.3,��
2018/02/08,00:50,0.868,1.451,0.908,1.673,1.166,0.482,0.857,0.830,��,2.6,��
2018/02/08,01:00,0.868,1.452,0.909,1.673,1.164,0.482,0.857,0.830,��,3.1,��
2018/02/08,01:10,0.870,1.452,0.909,1.672,1.168,0.481,0.857,0.829,���k��,4.8,��
2018/02/08,01:20,0.866,1.449,0.907,1.673,1.166,0.481,0.856,0.828,���k��,2.9,��
2018/02/08,01:30,0.868,1.451,0.907,1.672,1.163,0.481,0.856,0.829,���k��,2.0,��
2018/02/08,01:40,0.867,1.450,0.907,1.671,1.165,0.482,0.857,0.829,���k��,1.9,��
2018/02/08,01:50,0.870,1.451,0.907,1.670,1.167,0.483,0.855,0.828,���쐼,1.1,��
2018/02/08,02:00,0.868,1.451,0.907,1.669,1.162,0.480,0.858,0.830,��,2.3,��
2018/02/08,02:10,0.869,1.451,0.907,1.670,1.166,0.481,0.857,0.829,���k��,2.6,��
2018/02/08,02:20,0.869,1.453,0.906,1.669,1.164,0.481,0.857,0.829,�k��,3.0,��
2018/02/08,02:30,0.868,1.451,0.907,1.669,1.166,0.482,0.858,0.831,�k��,4.5,��
2018/02/08,02:40,0.869,1.453,0.907,1.671,1.166,0.482,0.856,0.828,�k��,6.1,��
2018/02/08,02:50,0.867,1.450,0.906,1.671,1.164,0.482,0.857,0.829,���k��,7.1,��
2018/02/08,03:00,0.868,1.452,0.908,1.670,1.166,0.480,0.859,0.830,���k��,6.9,��
2018/02/08,03:10,0.868,1.451,0.907,1.672,1.163,0.482,0.858,0.830,���k��,6.1,��
2018/02/08,03:20,0.868,1.451,0.907,1.671,1.164,0.480,0.855,0.829,���k��,4.9,��
2018/02/08,03:30,0.870,1.449,0.907,1.672,1.165,0.482,0.857,0.829,���k��,5.1,��
2018/02/08,03:40,0.870,1.449,0.904,1.672,1.163,0.482,0.857,0.830,�k��,5.6,��
2018/02/08,03:50,0.868,1.449,0.905,1.672,1.163,0.481,0.856,0.829,�k��,3.9,��
2018/02/08,04:00,0.867,1.449,0.908,1.671,1.164,0.481,0.857,0.831,�k��,4.2,��
2018/02/08,04:10,0.866,1.450,0.909,1.669,1.166,0.481,0.859,0.830,�k�k��,2.9,��
2018/02/08,04:20,0.866,1.450,0.906,1.672,1.163,0.482,0.858,0.829,�k�k��,1.8,��
2018/02/08,04:30,0.869,1.450,0.906,1.670,1.163,0.481,0.856,0.831,���k��,1.8,��
2018/02/08,04:40,0.869,1.449,0.908,1.670,1.164,0.482,0.855,0.828,��,2.2,��
2018/02/08,04:50,0.868,1.446,0.907,1.669,1.163,0.482,0.857,0.829,���쐼,1.5,��
2018/02/08,05:00,0.867,1.449,0.905,1.666,1.162,0.481,0.857,0.829,��,2.0,��
2018/02/08,05:10,0.867,1.448,0.906,1.669,1.164,0.481,0.857,0.830,���k��,2.0,��
2018/02/08,05:20,0.866,1.451,0.905,1.669,1.163,0.483,0.856,0.829,�k��,2.5,��
2018/02/08,05:30,0.869,1.446,0.905,1.670,1.165,0.481,0.858,0.829,�k��,2.8,��
2018/02/08,05:40,0.866,1.449,0.908,1.670,1.163,0.481,0.856,0.828,���k��,2.6,��
2018/02/08,05:50,0.867,1.447,0.907,1.668,1.163,0.481,0.856,0.829,���쐼,0.9,��
2018/02/08,06:00,0.867,1.449,0.907,1.669,1.160,0.482,0.856,0.830,��쓌,1.1,��
2018/02/08,06:10,0.869,1.450,0.905,1.669,1.161,0.481,0.857,0.828,��,0.6,��
2018/02/08,06:20,0.867,1.448,0.905,1.667,1.162,0.481,0.858,0.829,�쐼,0.6,��
2018/02/08,06:30,0.869,1.450,0.906,1.670,1.161,0.480,0.856,0.828,�k�k��,0.6,��
2018/02/08,06:40,0.868,1.450,0.905,1.668,1.161,0.482,0.857,0.829,�k��,1.2,��
2018/02/08,06:50,0.865,1.449,0.906,1.671,1.162,0.482,0.856,0.830,��,2.0,��
2018/02/08,07:00,0.869,1.448,0.905,1.671,1.160,0.483,0.856,0.828,�k��,5.0,��
2018/02/08,07:10,0.867,1.449,0.905,1.673,1.162,0.482,0.857,0.829,���k��,4.0,��
2018/02/08,07:20,0.868,1.447,0.906,1.670,1.160,0.481,0.856,0.828,���k��,5.0,��
2018/02/08,07:30,0.866,1.450,0.906,1.668,1.162,0.481,0.856,0.828,�k��,5.4,��
2018/02/08,07:40,0.868,1.447,0.905,1.670,1.161,0.480,0.857,0.829,���k��,6.1,��
2018/02/08,07:50,0.868,1.448,0.906,1.672,1.164,0.481,0.856,0.828,���k��,6.5,��
2018/02/08,08:00,0.871,1.447,0.906,1.673,1.162,0.481,0.858,0.829,���k��,5.2,��
2018/02/08,08:10,0.869,1.448,0.906,1.670,1.165,0.481,0.857,0.830,���k��,5.3,��
2018/02/08,08:20,0.870,1.450,0.908,1.671,1.162,0.482,0.858,0.829,���k��,3.0,��
2018/02/08,08:30,0.869,1.447,0.906,1.673,1.162,0.482,0.858,0.829,���쐼,3.7,��
2018/02/08,08:40,0.871,1.445,0.906,1.671,1.162,0.482,0.860,0.829,��,4.4,��
2018/02/08,08:50,0.870,1.447,0.907,1.674,1.164,0.481,0.860,0.831,��,5.2,��
2018/02/08,09:00,0.870,1.449,0.907,1.673,1.164,0.482,0.859,0.830,���k��,4.5,��
2018/02/08,09:10,0.870,1.447,0.906,1.671,1.163,0.482,0.860,0.828,��,4.9,��
2018/02/08,09:20,0.872,1.448,0.907,1.672,1.167,0.481,0.858,0.829,���k��,6.0,��
2018/02/08,09:30,0.871,1.447,0.908,1.675,1.167,0.483,0.859,0.829,���k��,5.8,��
2018/02/08,09:40,0.872,1.451,0.907,1.672,1.166,0.483,0.857,0.831,���k��,7.4,��
2018/02/08,09:50,0.871,1.446,0.910,1.670,1.165,0.483,0.858,0.830,���k��,6.3,��
2018/02/08,10:00,0.873,1.448,0.910,1.674,1.165,0.481,0.857,0.831,���k��,6.5,��
2018/02/08,10:10,0.873,1.448,0.911,1.674,1.168,0.482,0.858,0.830,���k��,7.7,��
2018/02/08,10:20,0.873,1.448,0.909,1.675,1.163,0.484,0.858,0.831,���k��,8.1,��
2018/02/08,10:30,0.873,1.445,0.910,1.674,1.166,0.483,0.859,0.831,���k��,7.5,��
2018/02/08,10:40,0.871,1.447,0.912,1.676,1.169,0.482,0.857,0.832,���k��,6.1,��
2018/02/08,10:50,-,1.443,0.908,1.676,1.166,0.482,0.860,0.831,���k��,5.2,��
2018/02/08,11:00,-,1.446,0.912,1.674,1.167,0.482,0.860,0.832,���k��,4.5,��
2018/02/08,11:10,-,1.450,0.911,1.675,1.169,0.483,0.858,0.831,�k��,6.0,��
2018/02/08,11:20,-,1.451,0.911,1.676,1.170,0.483,0.859,0.830,���k��,8.6,��
2018/02/08,11:30,-,1.451,0.911,1.676,1.171,0.482,0.858,0.832,���k��,9.1,��
2018/02/08,11:40,-,1.448,0.911,1.676,1.170,0.484,0.858,0.832,���k��,7.6,��
2018/02/08,11:50,-,1.448,0.912,1.674,1.169,0.483,0.858,0.834,��,7.4,��
2018/02/08,12:00,-,1.453,0.913,1.675,1.171,0.483,0.860,0.833,���k��,8.3,��
2018/02/08,12:10,-,1.456,0.913,1.678,1.172,0.483,0.859,0.833,���k��,7.7,��
2018/02/08,12:20,-,1.451,0.914,1.676,1.172,0.484,0.859,0.831,��,6.4,��
2018/02/08,12:30,-,1.455,0.912,1.679,1.172,0.485,0.860,0.832,���k��,6.1,��
2018/02/08,12:40,-,1.456,0.913,1.679,1.172,0.485,0.860,0.832,���k��,8.1,��
2018/02/08,12:50,-,1.456,0.913,1.682,1.173,0.485,0.858,0.834,���k��,5.1,��
2018/02/08,13:00,-,1.454,0.913,1.677,1.173,0.485,0.857,0.833,���k��,5.9,��
2018/02/08,13:10,-,1.456,0.912,1.680,1.172,0.484,0.858,0.834,���k��,5.9,��
2018/02/08,13:20,-,1.455,0.914,1.679,1.171,0.484,0.859,0.835,��,5.9,��
2018/02/08,13:30,-,1.452,0.914,1.680,1.172,0.483,0.859,0.833,���k��,6.3,��
2018/02/08,13:40,-,1.451,0.913,1.679,1.175,0.483,0.859,0.832,���k��,4.7,��
2018/02/08,13:50,-,1.454,0.912,1.681,1.173,0.485,0.858,0.832,��,7.0,��
2018/02/08,14:00,-,1.454,0.913,1.682,1.173,0.486,0.860,0.831,���쐼,6.0,��
2018/02/08,14:10,-,1.454,0.914,1.681,1.171,0.485,0.862,0.833,���k��,6.0,��
2018/02/08,14:20,-,1.455,0.915,1.679,1.174,0.484,0.862,0.831,���k��,6.2,��
2018/02/08,14:30,-,1.454,0.916,1.681,1.174,0.484,0.862,0.831,��,6.8,��
2018/02/08,14:40,0.876,1.457,0.915,1.682,1.176,0.484,0.861,0.830,��,6.9,��
2018/02/08,14:50,0.876,1.455,0.914,1.681,1.174,0.483,0.861,0.829,��,6.6,��
2018/02/08,15:00,0.877,1.454,0.912,1.683,1.176,0.486,0.862,0.830,���k��,7.2,��
2018/02/08,15:10,0.877,1.455,0.914,1.684,1.175,0.485,0.861,0.829,���k��,9.2,��
2018/02/08,15:20,0.876,1.459,0.913,1.685,1.175,0.485,0.860,0.833,���k��,10.2,��
2018/02/08,15:30,0.877,1.461,0.913,1.682,1.174,0.486,0.861,0.831,���k��,8.0,��
2018/02/08,15:40,0.876,1.461,0.912,1.682,1.176,0.484,0.862,0.832,��,10.3,��
2018/02/08,15:50,0.877,1.458,0.914,1.684,1.175,0.485,0.862,0.831,��,9.1,��
2018/02/08,16:00,0.879,1.461,0.913,1.682,1.174,0.486,0.864,0.833,���k��,10.5,��
2018/02/08,16:10,0.878,1.463,0.914,1.682,1.175,0.484,0.864,0.833,��,8.6,��
2018/02/08,16:20,0.874,1.460,0.916,1.685,1.176,0.484,0.862,0.833,��,8.1,��
2018/02/08,16:30,0.874,1.464,0.915,1.682,1.175,0.485,0.862,0.833,���k��,9.0,��
2018/02/08,16:40,0.875,1.458,0.914,1.682,1.174,0.483,0.862,0.832,��,9.1,��
2018/02/08,16:50,0.875,1.458,0.915,1.680,1.175,0.485,0.860,0.832,��,6.6,��
2018/02/08,17:00,0.874,1.461,0.913,1.683,1.175,0.485,0.862,0.831,���k��,8.7,��
2018/02/08,17:10,0.874,1.460,0.913,1.681,1.177,0.483,0.862,0.832,��,5.8,��
2018/02/08,17:20,0.875,1.459,0.913,1.680,1.174,0.483,0.863,0.831,��,7.8,��
2018/02/08,17:30,0.874,1.463,0.912,1.685,1.175,0.483,0.861,0.831,��,7.2,��
2018/02/08,17:40,0.873,1.459,0.911,1.682,1.175,0.485,0.861,0.831,��,7.5,��
2018/02/08,17:50,0.870,1.462,0.911,1.681,1.176,0.484,0.859,0.831,��,7.9,��
2018/02/08,18:00,0.874,1.459,0.911,1.683,1.176,0.482,0.860,0.830,��,7.6,��
2018/02/08,18:10,0.873,1.462,0.913,1.682,1.172,0.484,0.859,0.832,��,8.9,��
2018/02/08,18:20,0.875,1.459,0.912,1.681,1.176,0.483,0.861,0.830,��,9.0,��
2018/02/08,18:30,0.872,1.460,0.911,1.678,1.175,0.480,0.860,0.832,��,7.4,��
2018/02/08,18:40,0.874,1.463,0.911,1.682,1.175,0.482,0.861,0.832,��,7.4,��
2018/02/08,18:50,0.872,1.461,0.911,1.682,1.176,0.483,0.861,0.830,��,6.7,��
2018/02/08,19:00,0.875,1.462,0.909,1.682,1.177,0.483,0.860,0.832,��,6.9,��
2018/02/08,19:10,0.875,1.460,0.910,1.680,1.175,0.482,0.860,0.832,��,7.1,��
2018/02/08,19:20,0.873,1.460,0.907,1.681,1.176,0.482,0.860,0.831,���k��,6.5,��
2018/02/08,19:30,0.875,1.462,0.909,1.679,1.173,0.483,0.861,0.831,���k��,6.9,��
2018/02/08,19:40,0.874,1.461,0.910,1.683,1.173,0.482,0.860,0.832,��,6.6,��
2018/02/08,19:50,0.874,1.460,0.909,1.682,1.173,0.483,0.861,0.832,��,6.3,��
2018/02/08,20:00,0.874,1.461,0.911,1.679,1.175,0.482,0.860,0.831,��,6.1,��
2018/02/08,20:10,0.872,1.462,0.912,1.679,1.174,0.484,0.859,0.830,���k��,6.7,��
2018/02/08,20:20,0.871,1.461,0.911,1.680,1.173,0.484,0.859,0.832,���k��,7.0,��
2018/02/08,20:30,0.874,1.460,0.911,1.680,1.176,0.483,0.859,0.831,���k��,8.0,��
2018/02/08,20:40,0.875,1.462,0.912,1.680,1.174,0.482,0.861,0.832,���k��,7.6,��
2018/02/08,20:50,0.871,1.460,0.913,1.682,1.172,0.483,0.859,0.832,���k��,8.1,��
2018/02/08,21:00,0.874,1.460,0.913,1.682,1.173,0.483,0.859,0.830,���k��,5.8,��
2018/02/08,21:10,0.874,1.459,0.913,1.681,1.172,0.482,0.860,0.831,���k��,5.5,��
2018/02/08,21:20,0.871,1.460,0.912,1.680,1.172,0.482,0.858,0.830,���k��,5.2,��
2018/02/08,21:30,0.873,1.459,0.912,1.678,1.173,0.483,0.859,0.832,���k��,5.3,��
2018/02/08,21:40,0.872,1.458,0.910,1.679,1.174,0.481,0.860,0.830,���k��,6.3,��
2018/02/08,21:50,0.872,1.458,0.912,1.682,1.170,0.482,0.862,0.831,���k��,7.1,��
2018/02/08,22:00,0.872,1.461,0.910,1.679,1.172,0.481,0.860,0.831,��,6.9,��
2018/02/08,22:10,0.872,1.458,0.909,1.679,1.173,0.481,0.860,0.831,��,5.9,��
2018/02/08,22:20,0.873,1.461,0.911,1.680,1.172,0.481,0.857,0.830,���k��,5.5,��
2018/02/08,22:30,0.873,1.459,0.913,1.681,1.169,0.481,0.860,0.831,���k��,5.6,��
2018/02/08,22:40,0.872,1.457,0.911,1.681,1.171,0.483,0.857,0.830,�k��,6.4,��
2018/02/08,22:50,0.870,1.460,0.910,1.680,1.173,0.481,0.858,0.832,�k��,5.9,��
2018/02/08,23:00,0.871,1.457,0.911,1.679,1.171,0.481,0.857,0.831,���k��,4.5,��
2018/02/08,23:10,0.872,1.459,0.909,1.677,1.172,0.482,0.858,0.829,���k��,4.6,��
2018/02/08,23:20,0.871,1.457,0.910,1.680,1.172,0.482,0.858,0.830,�k��,4.5,��
2018/02/08,23:30,0.874,1.458,0.909,1.676,1.173,0.481,0.858,0.830,���k��,4.7,��
2018/02/08,23:40,0.873,1.459,0.910,1.682,1.174,0.481,0.857,0.829,���k��,4.8,��
2018/02/08,23:50,0.872,1.459,0.909,1.681,1.171,0.482,0.857,0.829,���k��,5.5,��
